{"data":{"norad_id":53139,"intl_designator":"2022-083H","name":"STARLINK-4185","alt_names":[],"object_type":"PAYLOAD","status":"ACTIVE","operator":null,"country":"US","launch_date":"2022-07-17","launch_site_code":"AFETR","launch_vehicle":null,"mission":null,"orbit_class":"UNKNOWN","rcs_meters":null,"size_class":null,"mass_kg":null,"dimensions":null,"purposes":["comms"],"wikipedia_slug":null,"has_3d_model":false,"image_url":null,"decayed_at":null,"tle_current":{"epoch":"2026-05-24T12:06:58.655520Z","epoch_age_seconds":121135,"freshness":"FRESH","line1":"1 53139U 22083H   26144.50484555  .00004726  00000+0  31505-3 0  9994","line2":"2 53139  53.2137 193.7736 0001157  97.1328 262.9796 15.08812399212668","mean_motion":15.08812399,"eccentricity":0.0001157,"inclination_deg":53.2137,"raan_deg":193.7736,"arg_perigee_deg":97.1328,"mean_anomaly_deg":262.9796,"bstar":0.00031505,"rev_number":21266,"period_min":95.4393005356,"perigee_km":539.02734694304,"apogee_km":540.62816398745,"semimajor_km":6917.9647554652,"source":"CELESTRAK","updated_at":"2026-05-25T13:38:17.316937Z"}}}